EDT,Max TemperatureF,Mean TemperatureF,Min TemperatureF,Max Dew PointF,MeanDew PointF,Min DewpointF,Max Humidity, Mean Humidity, Min Humidity, Max Sea Level PressureIn, Mean Sea Level PressureIn, Min Sea Level PressureIn, Max VisibilityMiles, Mean VisibilityMiles, Min VisibilityMiles, Max Wind SpeedMPH, Mean Wind SpeedMPH, Max Gust SpeedMPH,PrecipitationIn, CloudCover, Events, WindDirDegrees
2013-7-1,83,77,70,74,71,69,100,89,69,30.00,29.90,29.83,10,10,10,9,3,12,0.47,7,Rain,180
2013-7-2,79,76,73,74,73,71,100,92,79,30.16,30.09,30.00,10,8,1,12,3,17,0.82,8,Rain,169
2013-7-3,80,77,74,76,74,73,100,93,88,30.23,30.18,30.13,10,8,2,7,1,15,0.36,5,Rain,131
2013-7-4,89,82,74,77,74,72,100,88,61,30.23,30.20,30.14,10,9,2,20,3,31,0.21,5,Rain,152
2013-7-5,85,79,73,77,74,72,94,92,88,30.25,30.22,30.19,10,5,0,12,1,18,2.14,7,Fog-Rain,173
2013-7-6,88,80,72,75,73,71,100,90,65,30.24,30.20,30.14,10,6,0,16,2,23,0.35,6,Fog-Rain,162
2013-7-7,91,83,74,75,73,72,100,85,56,30.20,30.16,30.09,10,8,0,12,4,17,0.00,4,Fog,179
2013-7-8,90,83,75,77,74,71,94,83,63,30.21,30.17,30.13,10,9,1,10,2,15,0.20,3,Rain,207
2013-7-9,95,85,74,79,74,72,100,85,64,30.19,30.15,30.10,10,8,1,13,2,18,0.95,3,Rain,163
2013-7-10,89,82,74,76,74,72,100,83,63,30.13,30.07,29.98,10,9,2,16,3,21,0.33,4,Rain,201
2013-7-11,91,82,73,74,73,71,100,87,56,30.01,29.95,29.89,10,8,0,10,3,17,1.20,4,Fog-Rain,207
2013-7-12,86,79,72,72,71,68,93,82,61,30.00,29.93,29.88,10,10,5,8,2,10,0.27,5,Rain,182
2013-7-13,87,80,72,75,72,69,100,84,65,30.08,30.04,29.99,10,10,2,8,3,14,0.10,6,Rain,71
2013-7-14,87,81,74,75,73,72,94,87,59,30.25,30.17,30.10,10,9,2,18,3,29,0.14,5,Rain,136
2013-7-15,88,81,74,75,73,72,94,85,65,30.30,30.27,30.24,10,10,3,10,2,15,0.03,3,Rain,117
2013-7-16,94,83,72,75,72,69,100,74,49,30.31,30.26,30.22,10,10,7,7,1,9,0.00,1,,145
2013-7-17,94,83,71,76,71,64,94,82,49,30.24,30.19,30.13,10,8,0,22,2,40,1.61,2,Rain,260
2013-7-18,92,81,70,76,72,69,100,76,49,30.20,30.13,30.06,10,9,5,8,1,10,0.00,1,,190
2013-7-19,92,83,74,75,72,68,94,75,49,30.14,30.08,30.00,10,10,7,15,4,23,0.00,2,,172
2013-7-20,89,82,75,74,72,70,94,77,55,30.09,30.04,29.96,10,10,10,12,6,17,0.00,5,,190
2013-7-21,86,79,72,79,73,70,94,85,70,30.05,30.00,29.94,10,8,0,18,4,29,2.06,6,Fog-Rain,220
2013-7-22,89,82,75,74,73,70,94,81,59,30.01,29.96,29.89,10,10,6,15,6,21,0.00,4,,242
2013-7-23,91,84,76,73,71,67,88,76,47,29.90,29.87,29.80,10,10,10,14,7,18,0.00,3,,254
2013-7-24,90,83,75,75,73,69,94,79,63,29.85,29.82,29.77,10,9,5,13,2,21,T,3,Rain,222
2013-7-25,90,82,73,71,70,68,87,69,50,30.01,29.91,29.81,10,10,10,7,2,10,0.00,1,,68
2013-7-26,90,81,72,73,69,65,93,70,44,30.10,30.04,30.01,10,10,7,7,2,10,0.00,1,,135
2013-7-27,87,79,71,75,72,64,94,82,61,30.06,29.99,29.91,10,9,4,13,3,20,T,6,,166
2013-7-28,92,82,72,75,71,66,100,79,47,30.03,29.97,29.94,10,7,1,18,3,26,0.23,5,Rain,218
2013-7-29,91,83,75,75,73,70,100,84,55,30.16,30.08,30.02,10,7,2,12,1,18,0.09,2,Rain,203
2013-7-30,89,81,73,74,72,70,100,85,55,30.21,30.17,30.12,10,6,0,7,1,10,0.00,5,Fog,115
2013-7-31,85,80,74,77,74,71,94,87,70,30.15,30.09,30.01,10,7,1,13,3,18,T,5,,181